Flag for Israel

Past Weather in Jerusalem, Israel — Yesterday and Last 2 Weeks

Now
86 °F

Sunny.


Feels Like: 95 °F
Forecast: 88 / 69 °F
Wind: 3 mph from North

Location: Ben Gurion International Airport
Current Time: Sep 19, 2020 at 10:05:20 am
Latest Report: Sep 19, 2020 at 9:20 am
Visibility: 10 mi
Pressure29.89 "Hg(27.41 "Hg at 769m altitude)
Humidity: 70%
Dew Point: 75 °F
Location of JerusalemLocation

Past Weather in Jerusalem — Graph

°F

Jerusalem Temperature Yesterday

Maximum temperature yesterday: 93 °F (at 12:20 pm)
Minimum temperature yesterday: 75 °F (at 5:50 am)
Average temperature yesterday: 84 °F

High & Low Weather Summary for the Past Weeks

 TemperatureHumidityPressure
High99 °F (Sep 4, 11:50 am)89% (Sep 5, 12:20 am)29.95 "Hg (Sep 5, 12:20 am)
Low75 °F (Sep 18, 5:50 am)32% (Sep 12, 9:50 am)29.62 "Hg (Sep 10, 1:20 pm)
Average85 °F68%29.81 "Hg
* Reported Sep 4 8:20 am — Sep 19 8:50 am, Jerusalem. Weather by CustomWeather, © 2020

Note: Actual official high and low records may vary slightly from our data, if they occured in-between our weather recording intervals... More about our weather records

Jerusalem Weather History for the Previous 24 Hours

Scroll right to see more
 ConditionsComfort  
Time TempWeatherWind HumidityBarometerVisibility
8:50 am
Sat, Sep 19
82 °FSunny.3 mph79%29.86 "Hg10 mi
8:20 am82 °FPassing clouds.5 mph74%29.86 "HgN/A
7:50 am81 °FScattered clouds.5 mph79%29.86 "HgN/A
7:20 am79 °FScattered clouds.2 mph84%29.86 "Hg6 mi
6:50 am79 °FScattered clouds.2 mph84%29.86 "HgN/A
6:20 am79 °FPassing clouds.2 mph84%29.86 "HgN/A
5:50 am81 °FPassing clouds.3 mph79%29.86 "HgN/A
5:20 am81 °FPassing clouds.3 mph79%29.86 "HgN/A
4:50 am81 °FPassing clouds.1 mph79%29.86 "HgN/A
4:20 am81 °FClear.1 mph79%29.86 "Hg10 mi
3:50 am81 °FPassing clouds.2 mph79%29.86 "HgN/A
3:20 am81 °FPassing clouds.2 mph79%29.86 "HgN/A
2:50 am82 °FPassing clouds.3 mph79%29.86 "HgN/A
2:20 am82 °FPassing clouds.3 mph79%29.89 "HgN/A
1:50 am82 °FPassing clouds.2 mph79%29.89 "HgN/A
1:20 am82 °FPassing clouds.3 mph79%29.89 "HgN/A
12:50 am82 °FPassing clouds.3 mph79%29.89 "HgN/A
12:20 am82 °FClear.3 mph79%29.89 "Hg10 mi
11:50 pm
Fri, Sep 18
82 °FClear.3 mph79%29.89 "Hg10 mi
11:20 pm82 °FClear.5 mph79%29.89 "Hg10 mi
10:50 pm82 °FClear.5 mph79%29.89 "Hg10 mi
10:20 pm82 °FClear.3 mph79%29.89 "Hg10 mi
9:50 pm84 °FClear.3 mph74%29.92 "Hg10 mi
9:20 pm84 °FClear.5 mph74%29.92 "Hg10 mi
8:50 pm84 °FClear.8 mph74%29.89 "Hg10 mi
8:20 pm84 °FClear.9 mph74%29.89 "Hg10 mi
7:50 pm84 °FClear.9 mph74%29.89 "Hg10 mi
7:20 pm84 °FClear.8 mph74%29.86 "Hg10 mi
6:50 pm86 °FClear.9 mph66%29.86 "Hg10 mi
6:20 pm88 °FSunny.8 mph59%29.86 "Hg10 mi
5:50 pm90 °FSunny.9 mph55%29.86 "Hg10 mi
5:20 pm90 °FSunny.9 mph59%29.86 "Hg10 mi
4:50 pm90 °FSunny.12 mph55%29.86 "Hg10 mi
3:50 pm91 °FPassing clouds.10 mph52%29.86 "HgN/A
3:20 pm91 °FPassing clouds.10 mph52%29.89 "HgN/A
2:50 pm91 °FPassing clouds.9 mph46%29.89 "HgN/A
2:20 pm91 °FSunny.10 mph46%29.89 "Hg10 mi
1:50 pm91 °FSunny.10 mph56%29.89 "Hg10 mi
1:20 pm91 °FSunny.12 mph52%29.92 "Hg10 mi
12:50 pm91 °FSunny.12 mph56%29.92 "Hg10 mi
12:20 pm93 °FSunny.8 mph53%29.92 "Hg10 mi
11:50 am91 °FSunny.5 mph56%29.92 "Hg10 mi
11:20 am90 °FSunny.6 mph59%29.92 "Hg10 mi
10:50 am90 °FSunny.3 mph59%29.92 "Hg10 mi
10:20 am88 °FSunny.3 mph59%29.92 "Hg10 mi
Weather by CustomWeather, © 2020

See weather overview